User: anonymous   Login
Location: Oshawa
(43.9000°N, 78.8670°W)
Time: 08:33:06
(UTC-04:00)
Language:

Cosmos 2333 Rocket - Orbit

View from above orbital plane
View from above orbital plane
View from above satellite
View from above satellite

Ground track
Ground track

The orbit data is extracted from the following two-line orbital elements,

1 24298U 96051B   15182.47257453 -.00000171  00000-0 -66463-4 0  9990
2 24298 070.8430 132.9774 0015923 177.3879 321.2938 14.12413535970625
Epoch (UTC): 01 July 2015 11:20:30
Eccentricity: 0.0015923
inclination: 70.8430°
perigee height: 839 km
apogee height: 862 km
right ascension of ascending node: 132.9774°
argument of perigee: 177.3879°
revolutions per day: 14.12413535
mean anomaly at epoch: 321.2938°
orbit number at epoch: 97062

The dashed part of the orbit path shows where the satellite is in the earth's shadow,  

DLR